{"data":{"norad_id":55655,"intl_designator":"2023-021AD","name":"STARLINK-5267","alt_names":[],"object_type":"PAYLOAD","status":"ACTIVE","operator":null,"country":"US","launch_date":"2023-02-17","launch_site_code":"AFWTR","launch_vehicle":null,"mission":null,"orbit_class":"UNKNOWN","rcs_meters":null,"size_class":null,"mass_kg":null,"dimensions":null,"purposes":["comms"],"wikipedia_slug":null,"has_3d_model":false,"image_url":null,"decayed_at":null,"tle_current":{"epoch":"2026-05-24T22:36:21.691872Z","epoch_age_seconds":70341,"freshness":"FRESH","line1":"1 55655U 23021AD  26144.94191773  .00000523  00000+0  51619-4 0  9997","line2":"2 55655  69.9994 332.3067 0002943 268.1427  91.9395 14.98329640180692","mean_motion":14.9832964,"eccentricity":0.0002943,"inclination_deg":69.9994,"raan_deg":332.3067,"arg_perigee_deg":268.1427,"mean_anomaly_deg":91.9395,"bstar":5.1619e-5,"rev_number":18069,"period_min":96.107022217087,"perigee_km":570.0115621195,"apogee_km":574.10244631038,"semimajor_km":6950.1940042149,"source":"CELESTRAK","updated_at":"2026-05-25T13:38:17.872313Z"}}}